KANYINI

导读 | 星芒AI

KANYINI 卫星是澳大利亚原住民组织与科技企业合作发射的一颗小型卫星,旨在推动原住民在航天领域的参与和教育发展。该卫星以原住民语言中的“守护者”命名,象征着对土地和文化的保护。KANYINI 项目不仅促进了原住民青年对STEM(科学、技术、工程和数学)领域的兴趣,也推动了原住民知识与现代科技的融合,具有重要的文化与教育意义。

基本信息
目录编号:
60556
目录名称:
KANYINI
国际标识:
2024-149CS
轨道中心:
EARTH
卫星名称:
KANYINI
卫星全名:
KANYINI
卫星状态:
在轨 (已飞行486 天)
发射日期:
2024-08-16 UTC
国别 :
澳大利亚 (AU)
星等 :
--
轨道信息
数据来源 国际轨道数据
星历时间: 2025-12-15T06:51:12+0800
19小时前
查看轨道信息
半长轴: 6825.502km
偏心率: 0.0002378
轨道倾角: 97.392°
近地点辐角 154.264°
升交点赤经 67.546°
平近点角 205.872°
近地点: 445.743km
远地点: 448.991km
周期: 93.532分钟
每日圈数: 15.395753
详细信息
使用方式:
暂无
2D轨道图
3D轨道图
轨道高度分析图
轨道倾角分析图
轨道综合分析图
查看轨道综合分析图